Weather Roundup
Issued by NWS Corpus Christi, TX

Home | Current Version | Previous Version | Text Only | Print | Product List | Glossary On
Versions: 1 2 3 4 5 6 7 8 9 10 11 12 13 14 15 16 17 18 19 20 21 22 23 24 25 26 27 28 29 30 31 32 33 34 35 36 37 38 39 40 41 42 43 44 45 46 47 48 49 50
000
ASUS44 KCRP 271510
HRRCRP

SOUTH TEXAS REGIONAL WEATHER ROUNDUP
NATIONAL WEATHER SERVICE CORPUS CHRISTI TX
1000 AM CDT THU JUL 27 2017


TXZ229>244-271600-
...CORPUS CHRISTI AREA OBSERVATIONS...

CITY           SKY/WX    TMP DP  RH WIND       PRES   REMARKS
CORPUS CHRISTI MOSUNNY   86  75  69 SE12G18   30.04S HX  95
NAS CORPUS CHR MOSUNNY   89  77  67 S10       30.04S HX 101
ROCKPORT       MOSUNNY   85  76  74 S7        30.05R HX  94
KINGSVILLE NAS MOSUNNY   87  77  72 SE12      30.04S HX  99
ALICE          SUNNY     86  74  67 S6        30.04S HX  94
FALFURRIAS     SUNNY     85  74  69 SE12      30.04R HX  93
$$

...VICTORIA AREA OBSERVATIONS...

CITY           SKY/WX    TMP DP  RH WIND       PRES   REMARKS
VICTORIA       MOSUNNY   86  75  69 S9        30.05S HX  95
BEEVILLE       FAIR      87  75  66 S10       30.05S HX  96
PLEASANTON     SUNNY     85  70  60 S9        30.07S
SAN ANTONIO    MOSUNNY   84  70  62 S14       30.08S
$$

...LAREDO AREA OBSERVATIONS...

CITY           SKY/WX    TMP DP  RH WIND       PRES   REMARKS
LAREDO         SUNNY     87  70  56 SE18      30.03S HX  92
COTULLA        SUNNY     84  69  60 S8        30.04S
DEL RIO        CLOUDY    82  70  66 SE9       30.04R
MCALLEN        MOSUNNY   88  75  65 S13       30.03R HX  97
HEBBRONVILLE   SUNNY     83  70  63 SE12      30.06R
$$

...OTHER TEXAS OBSERVATIONS...

CITY           SKY/WX    TMP DP  RH WIND       PRES   REMARKS
BROWNSVILLE    MOSUNNY   86  73  65 S14       30.04R HX  93
HOUSTON        MOSUNNY   87  75  67 SW6       30.07S HX  96
COL. STATION   MOSUNNY   86  74  67 SW10      30.06S HX  94
AUSTIN         MOSUNNY   86  72  62 S9        30.07R HX  92
WACO           SUNNY     87  69  54 SW10      30.05R HX  91
FORT WORTH     MOSUNNY   88  70  55 SW10      30.02S HX  93
WICHITA FALLS  CLOUDY    87  67  51 W10       30.02R HX  90
LUBBOCK        PTSUNNY   82  62  50 SW10      30.15R
EL PASO        PTSUNNY   81  65  58 CALM      30.11R
$$

...MARINE OBSERVATIONS...

STATION/POSITION TIME  SKY/WX   TEMP    WIND        PRES    VSBY  WAVE   SWELL
                                AIR SEA DIR/SP/G                  HT/PER HT/PER
                 (UTC)          (F)     (DEG/KT/KT) (MB)    (MI)  (FT/S) (FT/S)
PORT ARANSAS     1400            84 85  150/  6/  7 1017.3R
BUOY 90 E PORT A 1350            85 86  150/  8/  8 1017.7          2/ 6   2/ 6
BUOY 45 SE BAFFI 1350            84     150/  8/ 10 1016.1          2/ 6   2/ 6
BUOY 200 E PT IS 1350            86 87  110/  8/ 10 1017.8          2/ 5   2/ 5
BUOY 15 E GALVES 1350            85 86  220/  8/ 10 1017.7          2/ 6   2/ 6
$$




USA.gov is the U.S. government's official web portal to all federal, state and local government web resources and services.